Regional Weather Roundup
Issued by NWS Grand Forks, ND

Home | Current Version | Previous Version | Text Only | Print | Product List | Glossary Off
Versions: 1 2 3 4 5 6 7 8 9 10 11 12 13 14 15 16 17 18 19 20 21 22 23 24 25 26 27 28 29 30 31 32 33 34 35 36 37 38 39 40 41 42 43 44 45 46 47 48 49 50

000
ASUS43 KFGF 281231
RWRFGF
PRAIRIE TO PINES  WEATHER ROUNDUP
NATIONAL WEATHER SERVICE EASTERN NORTH DAKOTA/GRAND FORKS ND
700 AM CDT SAT MAY 28 2016

 **SATELLITE DATA USED TO AUGMENT SKY COVER AT AUTOMATED STATIONS**
 *****  WEATHER ACROSS EASTERN NORTH DAKOTA  *****

CITY           SKY/WX    TMP DP  RH WIND       PRES   REMARKS
GRAND FORKS    CLOUDY    62  56  80 CALM      29.83R
6HR MIN TEMP:  61; 6HR MAX TEMP:  63;

GRAND FRKS AFB CLOUDY    61  58  91 SE6       29.84R
GRAND FRKS NWS   N/A     61 N/A N/A SE2         N/A
DEVILS LAKE    CLOUDY    56  54  93 N7        29.87S
6HR MIN TEMP:  55; 6HR MAX TEMP:  58;

FARGO          MOSUNNY   61  57  87 NE7       29.80F
WAHPETON ARPT  PTSUNNY   59  54  82 N6        29.80S
$$

 ***** WEATHER ACROSS CENTRAL AND WESTERN NORTH DAKOTA  *****

CITY           SKY/WX    TMP DP  RH WIND       PRES   REMARKS
BISMARCK       CLOUDY    57  55  93 NE9       29.87R FOG
6HR MIN TEMP:  50; 6HR MAX TEMP:  57;

MINOT          CLOUDY    56  53  90 N7        29.89R
6HR MIN TEMP:  56; 6HR MAX TEMP:  58;

JAMESTOWN      CLOUDY    60  59  96 N10       29.83R FOG
6HR MIN TEMP:  58; 6HR MAX TEMP:  61; 6HR PCP: TRACE;

MINOT AFB      CLOUDY    53  52  94 N9        29.89R
GARRISON         N/A     56  54  93 NE7       29.88R
WILLISTON      CLOUDY    55  51  86 E9        29.89S
6HR MIN TEMP:  55; 6HR MAX TEMP:  58;

DICKINSON      FOG       48  48 100 NE8       29.85S VSB<1/4
6HR MIN TEMP:  42; 6HR MAX TEMP:  49;

HETTINGER      CLOUDY    45  43  93 CALM      29.87S
6HR MIN TEMP:  37; 6HR MAX TEMP:  46;

$$

 *****  OTHER AIRPORT OBSERVATIONS IN OUR AREA  *****

CITY           SKY/WX    TMP DP  RH WIND       PRES   REMARKS
WALHALLA       LGT RAIN  55  55 100 N6        29.87S VSB 1/2
GRAFTON AIRPOR CLOUDY    61  61 100 CALM      29.86S
VALLEY CITY AR CLOUDY    57  57 100 NE7       29.85R FOG
CANDO          CLOUDY    54  54 100 N10       29.90S FOG
CAVALIER APRT  RAIN      57  57 100 CALM      29.86S VSB 3/4
GWINNER        CLOUDY    61  59  94 NE6       29.80F
SHEYENNE NWR     N/A     59  58  97 NE3       29.95S
ROLLA          FOG       50  50 100 N10       29.90F VSB 1/2
 ***** THE ABOVE OBSERVATIONS ARE NON NWS ARE NOT QUALITY
       CONTROLLED AND MAY MIS-REPORT RAIN FOR SNOW...
$$

  *****  WEATHER ACROSS NORTHERN MINNESOTA  *****

CITY           SKY/WX    TMP DP  RH WIND       PRES   REMARKS
FLAG ISLAND    CLOUDY    61  57  88 NE7       29.86S
WARROAD        MOSUNNY   59  55  88 NE5       29.87S
ROSEAU         SUNNY     57  52  82 NE3       29.86S
HALLOCK        CLOUDY    61  57  88 N5        29.85S
THF RVR FALLS  SUNNY     61  54  77 N5        29.85S
6HR MIN TEMP:  57; 6HR MAX TEMP:  59;

BAUDETTE       CLOUDY    58  56  93 E5        29.85S
6HR MIN TEMP:  57; 6HR MAX TEMP:  60; 6HR PCP:  0.01;

WASKISH        CLOUDY    57  55  94 NE3       29.84S
CROOKSTON      SUNNY     61  57  88 E6        29.84R
STEPHEN NDAWN    N/A     64  57  77 CALM        N/A
GREENBUSH NDAW   N/A     57  55  94 NE5         N/A
$$
  *****  WEATHER ACROSS CENTRAL AND WEST MINNESOTA  *****

CITY           SKY/WX    TMP DP  RH WIND       PRES   REMARKS
FOSSTON        CLOUDY    55  54  94 NE5       29.84S
BEMIDJI        CLOUDY    56  54  90 N6        29.82F
PARK RAPIDS    PTSUNNY   57  54  89 N6        29.81S
6HR MIN TEMP:  56; 6HR MAX TEMP:  59;

ELBOW LAKE     FAIR      58  56  93 E7        29.79F
6HR MIN TEMP:  56; 6HR MAX TEMP:  58;

WADENA         CLOUDY    57  54  88 NE7       29.80S
DETROIT LAKES  PTSUNNY   55  54  94 NE5       29.82S
MOORHEAD       MOSUNNY   57  55  94 N5        29.81S
FERGUS FALLS   MOSUNNY   57  57 100 E3        29.77S
MORRIS MN      CLOUDY    59  57  94 NE10      29.77S
STAPLES        CLOUDY    55  54  94 N6        29.80S
$$
  *****  WEATHER ELSEWHERE ACROSS MINNESOTA  *****

CITY           SKY/WX    TMP DP  RH WIND       PRES   REMARKS
DULUTH         DRIZZLE   49  48  97 NE3       29.78F FOG
6HR MIN TEMP:  47; 6HR MAX TEMP:  54; 6HR PCP:  0.02;

INTRNTL FALLS  LGT RAIN  56  55  97 CALM      29.85S FOG
6HR MIN TEMP:  56; 6HR MAX TEMP:  61; 6HR PCP:  0.03;

ELY            CLOUDY    55  55 100 NE5       29.79S FOG
CLOQUET        FOG       48  46  93 CALM      29.78S VSB 1/4
WHEATON        MOSUNNY   61  57  88 CALM      29.81R
BRAINERD       CLOUDY    57  55  93 N7        29.78F
6HR MIN TEMP:  56; 6HR MAX TEMP:  57; 6HR PCP: TRACE;

HIBBING        CLOUDY    55  55 100 N3        29.78S FOG
6HR MIN TEMP:  53; 6HR MAX TEMP:  55; 6HR PCP:  0.04;

ALEXANDRIA     CLOUDY    57  55  93 NE8       29.80S
6HR MIN TEMP:  57; 6HR MAX TEMP:  59;

SAINT CLOUD    CLOUDY    57  55  93 NE5       29.78S
6HR MIN TEMP:  56; 6HR MAX TEMP:  57;

MINNEAPOLIS    CLOUDY    62  59  90 NE8       29.75F
6HR MIN TEMP:  61; 6HR MAX TEMP:  63;

$$

  *****  WEATHER ACROSS SOUTH DAKOTA  *****

CITY           SKY/WX    TMP DP  RH WIND       PRES   REMARKS
SIOUX FALLS    RAIN      61  60  97 CALM      29.73S FOG
6HR MIN TEMP:  61; 6HR MAX TEMP:  63; 6HR PCP:  0.41;

BROOKINGS      HVY RAIN  61  59  94 E9        29.74S FOG
WATERTOWN      CLOUDY    60  58  92 NE10      29.77S FOG
6HR MIN TEMP:  54; 6HR MAX TEMP:  61;

HURON          CLOUDY    59  58  96 N7        29.76S FOG
6HR MIN TEMP:  57; 6HR MAX TEMP:  61;

SISSETON         N/A     60  57  89 NE7       29.78S
ABERDEEN       CLOUDY    60  57  89 N6        29.79S FOG
6HR MIN TEMP:  59; 6HR MAX TEMP:  60; 6HR PCP:  0.01;

MITCHELL       LGT RAIN  60  59  96 NW8       29.76F FOG
PIERRE         CLOUDY    56  53  90 NW7       29.79R
6HR MIN TEMP:  55; 6HR MAX TEMP:  59;

MOBRIDGE       CLOUDY    54  50  86 N6        29.80R
RAPID CITY     CLEAR     45  43  93 NW7       29.88R
6HR MIN TEMP:  43; 6HR MAX TEMP:  48;

$$

  *****  SOME WEATHER IN NEARBY STATES *****

CITY           SKY/WX    TMP DP  RH WIND       PRES   REMARKS
GLASGOW MT     CLOUDY    53  51  93 SE12      29.85S FOG
6HR MIN TEMP:  49; 6HR MAX TEMP:  56;

GREAT FALLS MT PTCLDY    40  33  76 S10       29.95S
6HR MIN TEMP:  38; 6HR MAX TEMP:  51; 6HR PCP: TRACE;

CHEYENNE WY    MOCLDY    45  37  73 W6        29.99R
6HR MIN TEMP:  41; 6HR MAX TEMP:  47;

SCOTTSBLUFF NE CLEAR     41  39  93 NW8       29.93R
6HR MIN TEMP:  37; 6HR MAX TEMP:  48;

OMAHA NE       PTSUNNY   62  58  86 S10       29.74S
6HR MIN TEMP:  62; 6HR MAX TEMP:  63;

DES MOINES IA  PTSUNNY   63  60  90 SE6       29.75R
6HR MIN TEMP:  62; 6HR MAX TEMP:  66; 6HR PCP:  0.05;

DAVENPORT IA   CLOUDY    68  64  87 S10       29.81R
6HR MIN TEMP:  67; 6HR MAX TEMP:  70; 6HR PCP:  0.03;

CHICAGO IL     CLOUDY    71  65  81 S18G26    29.88R
6HR MIN TEMP:  68; 6HR MAX TEMP:  71; 6HR PCP: TRACE;

EAU CLAIRE WI  CLOUDY    63  62  97 E5        29.75R
6HR MIN TEMP:  61; 6HR MAX TEMP:  64; 6HR PCP: TRACE;

LA CROSSE WI   LGT RAIN  67  64  90 N3        29.71F
6HR MIN TEMP:  65; 6HR MAX TEMP:  68; 6HR PCP:  0.56;

$$

  *****  SOME NATIONAL WEATHER *****

CITY           SKY/WX    TMP DP  RH WIND       PRES   REMARKS
LA GUARDIA NY  PTSUNNY   76  64  66 SW7       30.11S
6HR MIN TEMP:  73; 6HR MAX TEMP:  76;

RALEIGH NC     MOSUNNY   69  62  78 CALM      30.19R
6HR MIN TEMP:  59; 6HR MAX TEMP:  69;

ATLANTA GA     MOSUNNY   69  61  75 SE6       30.12R
6HR MIN TEMP:  66; 6HR MAX TEMP:  72;

NEW ORLEANS LA CLOUDY    77  71  82 SE10      29.92F
6HR MIN TEMP:  75; 6HR MAX TEMP:  77;

OKLAHOMA CITY  MOCLDY    62  61  96 W5        29.89R
6HR MIN TEMP:  59; 6HR MAX TEMP:  64;

ALBUQUERQUE NM PTCLDY    52  31  44 N5        30.05R
6HR MIN TEMP:  52; 6HR MAX TEMP:  65;

SALT LAKE CITY PTCLDY    54  44  69 SE6       29.99S
6HR MIN TEMP:  53; 6HR MAX TEMP:  60; 6HR PCP: TRACE;

LOS ANGELES CA CLOUDY   C1F1C2F2C3F3C4F4C5F5C6F6C7F7C8F8C9F9CaFaCbFbCcFcCd!


USA.gov is the U.S. government's official web portal to all federal, state and local government web resources and services.